Esquel, Argentina

10:25 PM -03 on October 16, 2019 (GMT -0300)
Esquel

Weather History for 87803 - August, 2019

Change the Weather History Date:

Wednesday, August 21, 2019

  Actual Average Record
Temperature  
Mean Temperature 40 °F -  
Max Temperature 46 °F 51 °F - ()
Min Temperature 33 °F 30 °F - ()
Degree Days  
Heating Degree Days 26    
Moisture  
Dew Point 33 °F    
Average Humidity 76    
Maximum Humidity 91    
Minimum Humidity 41    
Precipitation  
Precipitation 0.04 in 0.06 in - ()
Sea Level Pressure  
Sea Level Pressure 30.08 in    
Wind  
Wind Speed 7 mph ()    
Max Wind Speed 13 mph    
Max Gust Speed -    
Visibility 16.9 miles    
Events Rain , Snow    
T = Trace of Precipitation, MM = Missing Value Source: Averaged Metar Reports

Daily Weather History Graph

Daily Weather History Graph

Search for Another Location

Airport or City:

Astronomy

Aug. 21, 2019 Rise Set
Actual Time 8:29 AM -03 7:06 PM -03
Civil Twilight 8:00 AM -03 7:35 PM -03
Nautical Twilight 7:27 AM -03 8:09 PM -03
Astronomical Twilight 6:54 AM -03 8:41 PM -03
Moon 12:08 AM -03 (8/21) 11:30 AM -03 (8/21)
Length of Visible Light 11h 35m
Length of Day
10h 37m
Waning Gibbous, 70% of the Moon is Illuminated
Aug 21
Waning Gibbous
Aug 23
Last Quarter
Aug 30
New
Sep 6
First Quarter
Sep 14
Full

Hourly Weather History & Observations

Time (-03) Temp. Dew Point Humidity Pressure Visibility Wind Dir Wind Speed Gust Speed Precip Events Conditions
12:00 AM 34 °F 31 °F 86% 30.09 in 12 mi NE 9.2 mph - - Snow Light Snow
1:00 AM 33 °F 31 °F 89% 30.06 in 19 mi NE 10.4 mph - -   Overcast
2:00 AM 33 °F 30 °F 85% 30.04 in 19 mi NE 11.5 mph - -   Overcast
3:00 AM 34 °F 31 °F 84% 30.02 in 19 mi NE 9.2 mph - -   Partly Cloudy
4:00 AM 35 °F 31 °F 78% 30.00 in 19 mi NE 9.2 mph - -   Partly Cloudy
5:00 AM 34 °F 31 °F 82% 29.99 in 19 mi NE 8.1 mph - -   Partly Cloudy
6:00 AM 35 °F 31 °F 78% 30.00 in 19 mi NE 9.2 mph - -   Partly Cloudy
7:00 AM 34 °F 31 °F 82% 30.01 in 19 mi NE 5.8 mph - -   Scattered Clouds
8:00 AM 33 °F 31 °F 91% 30.02 in 19 mi ENE 8.1 mph - -   Partly Cloudy
9:00 AM 34 °F 31 °F 86% 30.04 in 19 mi NE 3.5 mph - -   Partly Cloudy
10:00 AM 35 °F 33 °F 88% 30.07 in 7 mi ENE 2.3 mph - - Rain Light Rain
11:00 AM 37 °F 34 °F 84% 30.07 in 19 mi NNE 4.6 mph - - Rain Light Rain
12:00 PM 39 °F 36 °F 84% 30.09 in 6 mi Calm Calm - - Rain Light Rain
1:00 PM 41 °F 38 °F 85% 30.09 in 19 mi North 3.5 mph - - Rain Light Rain
2:00 PM 44 °F 38 °F 74% 30.06 in 19 mi WSW 2.3 mph - -   Partly Cloudy
3:00 PM 45 °F 38 °F 67% 30.05 in 19 mi SW 4.6 mph - -   Partly Cloudy
4:00 PM 46 °F 36 °F 60% 30.07 in 16 mi WNW 4.6 mph - -   Overcast
5:00 PM 42 °F 38 °F 80% 30.11 in 9 mi WSW 6.9 mph - - Rain Light Rain
6:00 PM 42 °F 38 °F 79% 30.12 in 16 mi South 8.1 mph - - Rain Light Rain
7:00 PM 42 °F 35 °F 69% 30.16 in 19 mi WSW 12.7 mph - -   Partly Cloudy
9:00 PM 43 °F 31 °F 50% 30.19 in 19 mi WNW 9.2 mph - -   Partly Cloudy
10:00 PM 44 °F 30 °F 45% 30.21 in 19 mi West 10.4 mph - -   Scattered Clouds
11:00 PM 44 °F 28 °F 41% 30.25 in 19 mi West 11.5 mph - -   Scattered Clouds